Showing default

SINOD-D 3, 40977

Orbit data source: Space-Track

SINOD-D 3, 40977 is a payload satellite owned by SRI (US) in LEO that was launched on Thu, 08 Oct 2015 UTC via an ATLAS V 401 launch vehicle from the Air Force Western Test Range (AFWTR). Payload-class satellites include a variety of spacecraft equipped with specific instruments for various scientific and technological missions. These include communications satellites like Starlink; space stations such as the ISS; scientific satellites like the Hubble; Earth observation satellites from companies like Planet Labs, Umbra, and HawkEye 360; GPS; miniature CubeSats for education and research; and military/defense satellites.

Loading next visibility...
Identifier
40977, 2015-058P
Orbit
LEO
Country
Flag of USUS
Related business
Manufacturer
SRI
Mission
Operational Commercial Technology
Bus & Motor
CUBESAT 2U, Unknown motor
Mass
2 kg wet, 2 kg dry
Launch date (UTC)
2015-10-08 (10 years ago)
Launch vehicle
ATLAS V 401
Launch site
Air Force Western Test Range (AFWTR)
Object type
Payload
Rocket body
Debris
Shape & HBR
Box, 0.1 m
Radar Cross Section
0.025 m², Small (<0.1 m²)

Expand to show TLE details & history
Last TLE update: 19 hours ago

TLE from 19 hours ago
0 SINOD-D 3
1 40977U 15058P   26067.87460079  .00007401  00000-0  62915-3 0  9996
2 40977  64.7723 228.8677 0118566  98.4718 262.9855 14.93201375 99776
Epoch: 2026-03-08T20:59Z
TLE epoch observation values (Epoch: 2026-03-08T20:59:25.508Z)
Latitude
0.00007°
Longitude
107.43581°
Altitude
601.021 km
Speed
7.554 km/s
True Right ascension
15h 15m 28s
True Declination
0° 00' 00"
Sunlit
Object was in full shadow at epoch
Visualization orbit readout
Latitude
Unknown
Longitude
Unknown
Altitude
Unknown
Speed
Unknown
Apparent Right ascension
Unknown
Apparent Declination
Unknown
Sunlit
N/A
Visualization observer readout
Local Sidereal Time
19:48:46
Azimuth
Unknown
Elevation
Unknown
Doppler factor
Unknown
Orbital elements
Apogee altitude
669.104 km
Perigee altitude
503.95 km
Semi-major axis
6,964.664 km
Eccentricity
0.01186
Inclination
64.7723°
RAAN
228.8677°
Arg. of periapsis
98.4718°
True anomaly
261.63956°
Mean anomaly
262.9855°
Eccentric anomaly
262.31227°
Mean motion
3.73416 °/min
Orbital period
96.41 mins
BSTAR
0.00062915
Loading maneuver chart data...
Computing Atmospheric mass density...
Loading historical data...
Loading historical data...
Loading historical data...
Loading historical data...
Loading historical data...
Loading historical data...
Loading historical data...

Documentation

Showing up to 5 results
|